{"data":{"norad_id":69177,"intl_designator":"2026-112A","name":"STRIX-7","alt_names":[],"object_type":"PAYLOAD","status":"ACTIVE","operator":null,"country":"JPN","launch_date":"2026-05-22","launch_site_code":"RLLB","launch_vehicle":null,"mission":null,"orbit_class":"UNKNOWN","rcs_meters":null,"size_class":null,"mass_kg":null,"dimensions":null,"purposes":[],"wikipedia_slug":null,"has_3d_model":false,"image_url":null,"decayed_at":null,"tle_current":{"epoch":"2026-05-22T19:42:37.871424Z","epoch_age_seconds":273990,"freshness":"STALE","line1":"1 69177U 26112A   26142.82127166  .00000163  00000+0  29927-4 0  9992","line2":"2 69177  44.9091 325.6494 0027123 267.7288  92.0478 15.01794608    64","mean_motion":15.01794608,"eccentricity":0.0027123,"inclination_deg":44.9091,"raan_deg":325.6494,"arg_perigee_deg":267.7288,"mean_anomaly_deg":92.0478,"bstar":2.9927e-5,"rev_number":6,"period_min":95.885282336824,"perigee_km":542.54047484874,"apogee_km":580.18448372408,"semimajor_km":6939.4994792864,"source":"CELESTRAK","updated_at":"2026-05-25T13:38:09.297651Z"}}}